{"data":{"norad_id":62999,"epoch":"2026-09-21T07:18:56.990592Z","epoch_age_seconds":95558,"freshness":"FRESH","line1":"1 62999U 25031U   26264.30482628  .00009941  00000+0  37019-3 0  9994","line2":"2 62999  42.9990 118.4639 0001716 269.6279  90.4375 15.27587715 91015","mean_motion":15.27587715,"eccentricity":0.0001716,"inclination_deg":42.999,"raan_deg":118.4639,"arg_perigee_deg":269.6279,"mean_anomaly_deg":90.4375,"bstar":0.00037019,"rev_number":9101,"period_min":94.266272624482,"perigee_km":481.84861908154,"apogee_km":484.20337022131,"semimajor_km":6861.1629946514,"source":"CELESTRAK","updated_at":"2026-09-22T09:00:49.720225Z"}}